Location: Napa Junction
(38.1874°N, 122.2508°W)
Time: 12:17:37
(UTC+00:00)

Cosmos 1833 - Pass Details

Date: 08 September 2024
Orbit: 830 x 868 km, 70.9° (Epoch: 12 October)

Event Time Altitude Azimuth Distance (km) Brightness Sun altitude
Exits shadow 12:10:53 16° 194° (SSW) 2,084 5.9 -18.7°
Maximum altitude 12:15:32 77° 111° (ESE) 871 4.3 -17.8°
Drops below altitude 10° 12:21:15 10° 25° (NNE) 2,492 7.3 -16.8°
Sets 12:23:44 0° 25° (NNE) 3,437 8.1 -16.3°
